Location: Ku?niki
(51.4449°N, 17.8974°E)
Time: 14:53:18
(UTC+00:00)

IGS 5A - Pass Details

Date: 18 September 2020
Orbit: 583 x 588 km, 97.6° (Epoch: 09 October)

Event Time Altitude Azimuth Distance (km) Brightness Sun altitude
Exits shadow 19:37:08 67° 15° (NNE) 641 3.6 -24.3°
Drops below altitude 10° 19:40:49 10° 349° (N) 1,919 6.7 -24.7°
Sets 19:42:59 0° 348° (NNW) 2,824 7.7 -25.0°
